Hourly Data Report for September 26, 2017

All times are specified in Local Standard Time (LST). Add 1 hour to adjust for Daylight Saving Time where and when it is observed.

CORAL HARBOUR A
NUNAVUT

64°11'36.000" N
83°21'34.000" W
62.20 m
2301002
71915
YZS

Download Data

Hourly Data (September 2017)
Hourly Data Report for September 26, 2017
Temp Definition
°C
Dew Point Temp Definition
°C
Rel Hum Definition
%
Wind Dir Definition
10's deg

Wind Spd Definition
km/h
Visibility Definition
km
Stn Press Definition
kPa
Hmdx Definition


Wind Chill Definition


Weather Definition


TIME
00:00 Legend Double Dagger -1.5 -5.2 76 36 9 24.1 101.14   -5 LegendNANA
01:00 Legend Double Dagger -1.7 -5.3 76 30 12 24.1 101.15   -6 Cloudy
02:00 Legend Double Dagger -2.0 -5.7 76 30 9 24.1 101.18   -5 LegendNANA
03:00 Legend Double Dagger -2.0 -5.3 78 31 13 24.1 101.20   -6 LegendNANA
04:00 Legend Double Dagger -2.2 -5.5 78 33 11 24.1 101.21   -6 Cloudy
05:00 Legend Double Dagger -2.2 -5.5 78 31 13 24.1 101.24   -7 LegendNANA
06:00 Legend Double Dagger -2.4 -5.8 78 4 21 24.1 101.24   -8 LegendNANA
07:00 Legend Double Dagger -2.3 -5.2 80 30 13 24.1 101.24   -7 Cloudy
08:00 Legend Double Dagger -2.0 -5.2 79 34 13 24.1 101.25   -6 LegendNANA
09:00 Legend Double Dagger -1.7 -5.1 77 29 13 24.1 101.24   -6 LegendNANA
10:00 Legend Double Dagger -1.0 -5.1 73 1 13 24.1 101.24   -5 Mostly Cloudy
11:00 Legend Double Dagger 0.2 -4.3 72 32 8 24.1 101.22     LegendNANA
12:00 Legend Double Dagger 1.8 -3.5 68 28 11 24.1 101.20     LegendNANA
13:00 Legend Double Dagger 3.8 -2.8 62 26 12 24.1 101.16     Mostly Cloudy
14:00 Legend Double Dagger 4.7 -3.3 56 31 15 24.1 101.13     LegendNANA
15:00 Legend Double Dagger 5.6 -2.6 56 30 12 24.1 101.11     LegendNANA
16:00 Legend Double Dagger 5.1 -1.5 62 29 15 24.1 101.12     Mainly Clear
17:00 Legend Double Dagger 5.4 -1.4 61 29 13 24.1 101.11     LegendNANA
18:00 Legend Double Dagger 2.0 -1.5 78 30 9 24.1 101.10     LegendNANA
19:00 Legend Double Dagger 1.6 -1.1 82 5 11 24.1 101.12     Mainly Clear
20:00 Legend Double Dagger -0.2 -1.6 90 31 7 24.1 101.09   -3 LegendNANA
21:00 Legend Double Dagger 0.4 -1.1 89 18 10 24.1 101.09     LegendNANA
22:00 Legend Double Dagger -0.1 -1.3 92 29 3 24.1 101.07   -1 Clear
23:00 Legend Double Dagger 0.1 -1.0 92 32 5 24.1 101.05     LegendNANA

Notes on Data Quality.

Legend

  • E = Estimated
  • M = Missing
  • NA = Not Available
  • ‡ = Partner data that is not subject to review by the National Climate Archives
Date modified: